Location: Henham
(51.9333°N, 0.2500°E)
Time: 12:42:37
(UTC+00:00)

Cosmos 990 Rocket - Pass Details

Date: 23 October 2019
Orbit: 746 x 769 km, 74.0° (Epoch: 19 November)

Event Time Altitude Azimuth Distance (km) Brightness Sun altitude
Rises 18:11:05 0° 336° (NNW) 3,226 7.5 -13.3°
Reaches altitude 10° 18:13:30 10° 340° (NNW) 2,300 6.7 -13.7°
Maximum altitude 18:18:39 58° 60° (ENE) 887 4.0 -14.5°
Drops below altitude 10° 18:23:48 10° 140° (SE) 2,300 6.1 -15.2°
Enters shadow 18:23:49 10° 140° (SE) 2,304 6.1 -15.2°
